Location: Antioch Church
(34.9543°N, 88.5145°W)
Time: 23:13:14
(UTC+00:00)

Cosmos 1441 Rocket - Pass Details

Date: 11 December 2019
Orbit: 496 x 541 km, 81.1° (Epoch: 20 January)

Event Time Altitude Azimuth Distance (km) Brightness Sun altitude
Rises 00:29:57 0° 343° (NNW) 2,628 6.8 -21.4°
Reaches altitude 10° 00:32:10 10° 337° (NNW) 1,730 6.0 -21.8°
Maximum altitude 00:35:46 42° 266° (W) 733 4.4 -22.5°
Drops below altitude 10° 00:39:17 10° 195° (SSW) 1,698 6.1 -23.2°
Sets 00:41:27 0° 188° (S) 2,572 7.0 -23.6°
